| time (UTC) | temp F | wind direction | speed MPH | gust MPH | rain 1hr in | rain 24hr in | rain mn in | humidity % | barometer mb |
| 20260509160334 | 75 | 190 | 0.0 | 2.0 | 0.00 | 0.00 | 0.00 | 92 | 1010.9 |
| 20260509155821 | 75 | 188 | 0.0 | 3.0 | 0.00 | 0.00 | 0.00 | 92 | 1010.9 |
| 20260509155324 | 75 | 188 | 2.0 | 3.0 | 0.00 | 0.00 | 0.00 | 92 | 1010.9 |
| 20260509154855 | 75 | 186 | 0.0 | 1.0 | 0.00 | 0.00 | 0.00 | 92 | 1011.0 |
| 20260509154320 | 75 | 186 | 0.0 | 3.0 | 0.00 | 0.00 | 0.00 | 91 | 1011.0 |
| 20260509153827 | 75 | 186 | 1.0 | 3.0 | 0.00 | 0.00 | 0.00 | 91 | 1011.2 |
| 20260509153332 | 75 | 186 | 1.0 | 3.0 | 0.00 | 0.00 | 0.00 | 91 | 1011.3 |
| 20260509152838 | 75 | 186 | 1.0 | 3.0 | 0.00 | 0.00 | 0.00 | 91 | 1011.2 |
| 20260509152321 | 75 | 180 | 1.0 | 3.0 | 0.00 | 0.00 | 0.00 | 91 | 1011.1 |
| 20260509151825 | 75 | 173 | 1.0 | 4.0 | 0.00 | 0.00 | 0.00 | 91 | 1011.0 |
| 20260509151328 | 75 | 171 | 2.0 | 5.0 | 0.00 | 0.00 | 0.00 | 91 | 1011.0 |
| 20260509150840 | 74 | 162 | 2.0 | 6.0 | 0.00 | 0.00 | 0.00 | 91 | 1010.9 |
| 20260509150318 | 74 | 186 | 2.0 | 6.0 | 0.00 | 0.00 | 0.00 | 91 | 1010.9 |
| 20260509145826 | 74 | 222 | 0.0 | 4.0 | 0.00 | 0.00 | 0.00 | 91 | 1010.8 |
| 20260509145329 | 74 | 223 | 1.0 | 5.0 | 0.00 | 0.00 | 0.00 | 91 | 1010.7 |
| 20260509144835 | 74 | 223 | 2.0 | 5.0 | 0.00 | 0.00 | 0.00 | 91 | 1010.6 |
| 20260509144335 | 74 | 182 | 1.0 | 7.0 | 0.00 | 0.00 | 0.00 | 91 | 1010.5 |
| 20260509143821 | 74 | 200 | 3.0 | 7.0 | 0.00 | 0.00 | 0.00 | 91 | 1010.2 |
| 20260509143325 | 74 | 165 | 2.0 | 7.0 | 0.00 | 0.00 | 0.00 | 91 | 1010.0 |
| 20260509142829 | 74 | 171 | 3.0 | 7.0 | 0.00 | 0.00 | 0.00 | 91 | 1009.9 |
| 20260509142343 | 74 | 136 | 3.0 | 7.0 | 0.00 | 0.00 | 0.00 | 91 | 1010.0 |
| 20260509141849 | 74 | 153 | 2.0 | 5.0 | 0.00 | 0.00 | 0.00 | 91 | 1010.0 |
| 20260509141351 | 74 | 159 | 3.0 | 5.0 | 0.00 | 0.00 | 0.00 | 91 | 1009.9 |
| 20260509140837 | 74 | 224 | 0.0 | 3.0 | 0.00 | 0.00 | 0.00 | 91 | 1010.1 |
| 20260509140351 | 74 | 224 | 0.0 | 8.0 | 0.00 | 0.00 | 0.00 | 91 | 1010.1 |
| 20260509135835 | 74 | 224 | 2.0 | 8.0 | 0.00 | 0.00 | 0.00 | 91 | 1010.0 |
| 20260509135320 | 74 | 177 | 2.0 | 6.0 | 0.00 | 0.00 | 0.00 | 91 | 1009.9 |
| 20260509134822 | 74 | 227 | 1.0 | 7.0 | 0.00 | 0.00 | 0.00 | 91 | 1010.1 |
| 20260509134327 | 74 | 195 | 2.0 | 8.0 | 0.00 | 0.00 | 0.00 | 91 | 1010.0 |
| 20260509133835 | 73 | 216 | 4.0 | 7.0 | 0.00 | 0.00 | 0.00 | 91 | 1009.9 |
| 20260509133341 | 73 | 215 | 3.0 | 6.0 | 0.00 | 0.00 | 0.00 | 91 | 1009.8 |
| 20260509034817 | 73 | 174 | 2.0 | 4.0 | 0.00 | 0.38 | 0.38 | 87 | 1009.5 |
| 20260509034329 | 73 | 127 | 1.0 | 3.0 | 0.00 | 0.38 | 0.38 | 87 | 1009.6 |
| 20260509033835 | 73 | 127 | 2.0 | 6.0 | 0.00 | 0.38 | 0.38 | 87 | 1009.5 |
| 20260509033342 | 73 | 111 | 2.0 | 8.0 | 0.00 | 0.38 | 0.38 | 87 | 1009.1 |
| 20260509032828 | 74 | 137 | 3.0 | 8.0 | 0.00 | 0.38 | 0.38 | 87 | 1009.1 |
| 20260509032349 | 74 | 115 | 3.0 | 7.0 | 0.00 | 0.38 | 0.38 | 87 | 1009.1 |
| 20260509031842 | 74 | 97 | 3.0 | 7.0 | 0.00 | 0.38 | 0.38 | 87 | 1009.0 |
| 20260509031319 | 74 | 109 | 4.0 | 9.0 | 0.00 | 0.38 | 0.38 | 87 | 1009.0 |
| 20260509030831 | 74 | 135 | 4.0 | 10.0 | 0.00 | 0.38 | 0.38 | 87 | 1009.0 |
| 20260509030337 | 74 | 141 | 4.0 | 10.0 | 0.00 | 0.38 | 0.38 | 87 | 1008.9 |
| 20260509025823 | 74 | 126 | 3.0 | 9.0 | 0.00 | 0.38 | 0.38 | 87 | 1008.9 |
| 20260509025327 | 74 | 133 | 4.0 | 9.0 | 0.00 | 0.38 | 0.38 | 87 | 1008.8 |
| 20260509024829 | 74 | 144 | 4.0 | 9.0 | 0.00 | 0.38 | 0.38 | 87 | 1008.7 |
| 20260509024335 | 74 | 131 | 4.0 | 8.0 | 0.00 | 0.38 | 0.38 | 87 | 1008.7 |
| 20260509023822 | 74 | 161 | 2.0 | 6.0 | 0.00 | 0.38 | 0.38 | 87 | 1008.8 |
| 20260509023322 | 74 | 153 | 2.0 | 5.0 | 0.00 | 0.38 | 0.38 | 87 | 1008.8 |
| 20260509022828 | 74 | 151 | 2.0 | 4.0 | 0.00 | 0.38 | 0.38 | 87 | 1009.0 |
| 20260509022327 | 74 | 144 | 1.0 | 3.0 | 0.00 | 0.38 | 0.38 | 87 | 1008.9 |
| 20260509021843 | 75 | 144 | 1.0 | 3.0 | 0.00 | 0.38 | 0.38 | 87 | 1008.9 |
| 20260509021346 | 75 | 144 | 1.0 | 3.0 | 0.00 | 0.38 | 0.38 | 86 | 1008.8 |
| 20260509020828 | 75 | 145 | 2.0 | 5.0 | 0.00 | 0.38 | 0.38 | 86 | 1008.7 |
| 20260509020329 | 75 | 145 | 2.0 | 8.0 | 0.00 | 0.38 | 0.38 | 87 | 1008.6 |
| 20260509015832 | 75 | 163 | 2.0 | 8.0 | 0.00 | 0.38 | 0.38 | 87 | 1008.7 |
| 20260509015337 | 75 | 140 | 3.0 | 8.0 | 0.00 | 0.38 | 0.38 | 87 | 1008.7 |
| 20260509014849 | 75 | 139 | 3.0 | 8.0 | 0.00 | 0.38 | 0.38 | 87 | 1008.6 |
| 20260509014334 | 75 | 153 | 3.0 | 8.0 | 0.00 | 0.38 | 0.38 | 86 | 1008.6 |
| 20260509013820 | 75 | 142 | 4.0 | 8.0 | 0.00 | 0.38 | 0.38 | 86 | 1008.6 |
| 20260509013327 | 75 | 128 | 4.0 | 8.0 | 0.00 | 0.38 | 0.38 | 86 | 1008.6 |
| 20260509012829 | 75 | 130 | 3.0 | 7.0 | 0.00 | 0.38 | 0.38 | 86 | 1008.7 |
| 20260509012355 | 76 | 145 | 3.0 | 7.0 | 0.00 | 0.38 | 0.38 | 87 | 1008.7 |
| 20260509011839 | 76 | 136 | 3.0 | 8.0 | 0.00 | 0.38 | 0.38 | 87 | 1008.6 |
| 20260509011345 | 76 | 105 | 3.0 | 8.0 | 0.00 | 0.38 | 0.38 | 87 | 1008.6 |
| 20260509010826 | 76 | 127 | 2.0 | 7.0 | 0.00 | 0.38 | 0.38 | 87 | 1008.5 |
| 20260509010334 | 76 | 126 | 3.0 | 7.0 | 0.00 | 0.38 | 0.38 | 87 | 1008.4 |
| 20260509005819 | 76 | 121 | 3.0 | 9.0 | 0.00 | 0.38 | 0.38 | 86 | 1008.3 |
| 20260509005319 | 76 | 113 | 5.0 | 9.0 | 0.00 | 0.38 | 0.38 | 86 | 1008.3 |
| 20260509004830 | 76 | 134 | 5.0 | 8.0 | 0.00 | 0.38 | 0.38 | 86 | 1008.5 |
| 20260509004334 | 76 | 116 | 4.0 | 8.0 | 0.00 | 0.38 | 0.38 | 87 | 1008.5 |
| 20260509003821 | 76 | 101 | 4.0 | 7.0 | 0.00 | 0.38 | 0.38 | 87 | 1008.6 |
| 20260509003327 | 77 | 97 | 2.0 | 6.0 | 0.00 | 0.38 | 0.38 | 87 | 1008.6 |
| 20260509002828 | 77 | 90 | 2.0 | 7.0 | 0.00 | 0.38 | 0.38 | 87 | 1008.5 |
| 20260509002330 | 77 | 99 | 3.0 | 7.0 | 0.00 | 0.38 | 0.38 | 87 | 1008.6 |
| 20260509001837 | 77 | 88 | 3.0 | 9.0 | 0.00 | 0.38 | 0.38 | 87 | 1008.5 |
| 20260509001321 | 77 | 111 | 4.0 | 9.0 | 0.00 | 0.38 | 0.38 | 87 | 1008.6 |
| 20260509000835 | 77 | 132 | 4.0 | 9.0 | 0.00 | 0.38 | 0.38 | 87 | 1008.6 |
| 20260509000340 | 77 | 111 | 5.0 | 8.0 | 0.00 | 0.38 | 0.38 | 87 | 1008.6 |
| 20260508235845 | 77 | 132 | 4.0 | 8.0 | 0.00 | 0.38 | 0.38 | 87 | 1008.6 |
| 20260508235326 | 77 | 112 | 3.0 | 10.0 | 0.00 | 0.38 | 0.38 | 87 | 1008.5 |
| 20260508234832 | 77 | 86 | 2.0 | 10.0 | 0.00 | 0.38 | 0.38 | 87 | 1008.6 |
| 20260508234358 | 77 | 127 | 3.0 | 9.0 | 0.00 | 0.38 | 0.38 | 87 | 1008.6 |
| 20260508233849 | 77 | 111 | 5.0 | 9.0 | 0.00 | 0.38 | 0.38 | 87 | 1008.7 |
| 20260508233336 | 78 | 70 | 4.0 | 9.0 | 0.00 | 0.38 | 0.38 | 87 | 1008.6 |
| 20260508232843 | 78 | 118 | 4.0 | 9.0 | 0.00 | 0.38 | 0.38 | 87 | 1008.5 |
| 20260508232349 | 78 | 49 | 5.0 | 10.0 | 0.00 | 0.38 | 0.38 | 87 | 1008.5 |
| 20260508231829 | 78 | 63 | 4.0 | 10.0 | 0.00 | 0.38 | 0.38 | 87 | 1008.5 |
| 20260508231335 | 78 | 68 | 5.0 | 9.0 | 0.00 | 0.38 | 0.38 | 87 | 1008.5 |
| 20260508230819 | 78 | 79 | 5.0 | 8.0 | 0.00 | 0.38 | 0.38 | 87 | 1008.6 |
| 20260508230350 | 78 | 94 | 3.0 | 11.0 | 0.00 | 0.38 | 0.38 | 87 | 1008.7 |
| 20260508225849 | 78 | 88 | 7.0 | 11.0 | 0.00 | 0.38 | 0.38 | 87 | 1008.6 |
| 20260508225338 | 78 | 86 | 7.0 | 11.0 | 0.00 | 0.38 | 0.38 | 88 | 1008.6 |
| 20260508224844 | 78 | 78 | 3.0 | 6.0 | 0.00 | 0.38 | 0.38 | 87 | 1008.7 |
| 20260508224325 | 78 | 73 | 4.0 | 7.0 | 0.00 | 0.38 | 0.38 | 87 | 1008.8 |
| 20260508223829 | 78 | 51 | 3.0 | 7.0 | 0.00 | 0.38 | 0.38 | 88 | 1008.8 |
| 20260508223336 | 78 | 109 | 2.0 | 7.0 | 0.00 | 0.38 | 0.38 | 88 | 1008.9 |
| 20260508222822 | 78 | 99 | 3.0 | 6.0 | 0.00 | 0.38 | 0.38 | 88 | 1008.8 |
| 20260508222355 | 78 | 93 | 3.0 | 6.0 | 0.00 | 0.38 | 0.38 | 88 | 1008.7 |
| 20260508221840 | 78 | 99 | 3.0 | 4.0 | 0.00 | 0.38 | 0.38 | 88 | 1008.8 |
| 20260508221347 | 78 | 105 | 2.0 | 4.0 | 0.00 | 0.38 | 0.38 | 88 | 1008.9 |
| 20260508220830 | 78 | 106 | 0.0 | 1.0 | 0.00 | 0.38 | 0.38 | 88 | 1008.9 |
| 20260508220320 | 78 | 106 | 0.0 | 3.0 | 0.00 | 0.38 | 0.38 | 88 | 1009.0 |
| 20260508215850 | 78 | 106 | 1.0 | 3.0 | 0.00 | 0.38 | 0.38 | 88 | 1009.0 |
| 20260508215351 | 78 | 106 | 1.0 | 4.0 | 0.00 | 0.38 | 0.38 | 88 | 1009.1 |
| 20260508214836 | 78 | 96 | 2.0 | 8.0 | 0.00 | 0.38 | 0.38 | 88 | 1009.0 |
| 20260508214323 | 78 | 126 | 5.0 | 8.0 | 0.00 | 0.38 | 0.38 | 88 | 1009.0 |
| 20260508213857 | 78 | 148 | 3.0 | 7.0 | 0.00 | 0.38 | 0.38 | 89 | 1009.0 |
| 20260508213342 | 77 | 142 | 1.0 | 6.0 | 0.00 | 0.38 | 0.38 | 89 | 1009.0 |
| 20260508212849 | 77 | 187 | 3.0 | 6.0 | 0.00 | 0.38 | 0.38 | 89 | 1009.0 |
| 20260508212329 | 77 | 82 | 3.0 | 6.0 | 0.00 | 0.38 | 0.38 | 89 | 1009.1 |
| 20260508211900 | 77 | 76 | 2.0 | 5.0 | 0.00 | 0.38 | 0.38 | 89 | 1009.2 |
| 20260508211345 | 76 | 101 | 1.0 | 4.0 | 0.00 | 0.38 | 0.38 | 89 | 1009.3 |
| 20260508210826 | 77 | 115 | 2.0 | 7.0 | 0.00 | 0.38 | 0.38 | 89 | 1009.4 |
| 20260508210357 | 77 | 105 | 3.0 | 7.0 | 0.00 | 0.38 | 0.38 | 88 | 1009.6 |
| 20260508205845 | 77 | 85 | 2.0 | 4.0 | 0.00 | 0.38 | 0.38 | 89 | 1009.5 |
| 20260508205325 | 76 | 89 | 2.0 | 6.0 | 0.00 | 0.38 | 0.38 | 89 | 1009.6 |
| 20260508204827 | 76 | 84 | 1.0 | 6.0 | 0.00 | 0.38 | 0.38 | 89 | 1009.7 |
| 20260508204329 | 76 | 75 | 3.0 | 5.0 | 0.00 | 0.38 | 0.38 | 89 | 1009.7 |
| 20260508203837 | 76 | 76 | 4.0 | 9.0 | 0.00 | 0.38 | 0.38 | 89 | 1009.8 |
| 20260508203347 | 76 | 84 | 7.0 | 9.0 | 0.00 | 0.38 | 0.38 | 89 | 1009.9 |
| 20260508202831 | 76 | 67 | 2.0 | 5.0 | 0.00 | 0.38 | 0.38 | 89 | 1009.9 |
| 20260508202335 | 76 | 69 | 2.0 | 7.0 | 0.00 | 0.38 | 0.38 | 89 | 1010.1 |
| 20260508201823 | 76 | 84 | 5.0 | 9.0 | 0.00 | 0.38 | 0.38 | 89 | 1010.1 |
| 20260508201326 | 76 | 82 | 3.0 | 9.0 | 0.00 | 0.38 | 0.38 | 89 | 1010.1 |
| 20260508200857 | 76 | 44 | 1.0 | 7.0 | 0.00 | 0.38 | 0.38 | 89 | 1010.1 |
| 20260508200343 | 75 | 53 | 3.0 | 7.0 | 0.00 | 0.38 | 0.38 | 89 | 1010.2 |
| 20260508195828 | 75 | 94 | 2.0 | 6.0 | 0.00 | 0.38 | 0.38 | 89 | 1010.2 |
| 20260508195325 | 75 | 49 | 3.0 | 8.0 | 0.00 | 0.38 | 0.38 | 89 | 1010.3 |
| 20260508194829 | 75 | 5 | 4.0 | 8.0 | 0.00 | 0.38 | 0.38 | 89 | 1010.3 |
| 20260508194336 | 75 | 63 | 4.0 | 9.0 | 0.00 | 0.38 | 0.38 | 89 | 1010.4 |
| 20260508193837 | 75 | 61 | 6.0 | 9.0 | 0.00 | 0.38 | 0.38 | 89 | 1010.4 |
| 20260508193318 | 74 | 94 | 4.0 | 7.0 | 0.00 | 0.38 | 0.38 | 89 | 1010.5 |
| 20260508192831 | 74 | 61 | 2.0 | 6.0 | 0.00 | 0.38 | 0.38 | 89 | 1010.7 |
| 20260508192354 | 74 | 46 | 3.0 | 7.0 | 0.00 | 0.38 | 0.38 | 89 | 1010.7 |
| 20260508191819 | 74 | 94 | 4.0 | 6.0 | 0.00 | 0.38 | 0.38 | 89 | 1010.8 |
| 20260508191321 | 73 | 54 | 1.0 | 5.0 | 0.00 | 0.38 | 0.38 | 89 | 1010.8 |
| 20260508190832 | 73 | 56 | 3.0 | 5.0 | 0.00 | 0.38 | 0.38 | 89 | 1011.0 |
| 20260508190337 | 73 | 118 | 3.0 | 6.0 | 0.00 | 0.38 | 0.38 | 89 | 1011.1 |
| 20260508185824 | 72 | 102 | 2.0 | 4.0 | 0.00 | 0.38 | 0.38 | 89 | 1011.3 |
| 20260508185327 | 72 | 101 | 2.0 | 5.0 | 0.00 | 0.38 | 0.38 | 89 | 1011.3 |
| 20260508184829 | 72 | 101 | 3.0 | 5.0 | 0.00 | 0.38 | 0.38 | 89 | 1011.4 |
| 20260508184332 | 72 | 82 | 3.0 | 5.0 | 0.00 | 0.38 | 0.38 | 89 | 1011.4 |
| 20260508183830 | 72 | 79 | 2.0 | 5.0 | 0.00 | 0.38 | 0.38 | 89 | 1011.5 |
| 20260508183335 | 72 | 167 | 3.0 | 6.0 | 0.00 | 0.38 | 0.38 | 89 | 1011.5 |
| 20260508182819 | 72 | 86 | 3.0 | 6.0 | 0.00 | 0.38 | 0.38 | 89 | 1011.5 |
| 20260508182352 | 72 | 65 | 4.0 | 6.0 | 0.00 | 0.38 | 0.38 | 89 | 1011.6 |
| 20260508181832 | 72 | 71 | 2.0 | 6.0 | 0.00 | 0.38 | 0.38 | 89 | 1011.6 |
| 20260508181338 | 72 | 77 | 3.0 | 8.0 | 0.00 | 0.38 | 0.38 | 89 | 1011.6 |
| 20260508180839 | 71 | 84 | 4.0 | 6.0 | 0.00 | 0.38 | 0.38 | 89 | 1011.7 |
| 20260508180331 | 71 | 109 | 2.0 | 7.0 | 0.00 | 0.38 | 0.38 | 89 | 1011.7 |
| 20260508175837 | 71 | 128 | 4.0 | 7.0 | 0.00 | 0.38 | 0.38 | 89 | 1011.8 |
| 20260508175340 | 71 | 67 | 2.0 | 6.0 | 0.00 | 0.38 | 0.38 | 89 | 1011.9 |
| 20260508174822 | 70 | 54 | 2.0 | 6.0 | 0.00 | 0.38 | 0.38 | 89 | 1011.9 |
| 20260508174354 | 70 | 38 | 2.0 | 6.0 | 0.00 | 0.38 | 0.38 | 89 | 1012.0 |
| 20260508173818 | 70 | 19 | 4.0 | 6.0 | 0.00 | 0.38 | 0.38 | 89 | 1012.1 |
| 20260508173322 | 70 | 12 | 3.0 | 6.0 | 0.00 | 0.38 | 0.38 | 89 | 1012.2 |
| 20260508172826 | 70 | 54 | 4.0 | 6.0 | 0.00 | 0.38 | 0.38 | 89 | 1012.1 |
| 20260508172331 | 70 | 53 | 2.0 | 8.0 | 0.00 | 0.38 | 0.38 | 89 | 1012.1 |
| 20260508171836 | 69 | 35 | 3.0 | 8.0 | 0.00 | 0.38 | 0.38 | 89 | 1012.1 |
| 20260508171317 | 69 | 57 | 2.0 | 8.0 | 0.00 | 0.38 | 0.38 | 89 | 1012.2 |
| 20260508170849 | 68 | 5 | 4.0 | 8.0 | 0.00 | 0.38 | 0.38 | 89 | 1012.2 |
| 20260508170331 | 68 | 45 | 4.0 | 9.0 | 0.00 | 0.38 | 0.38 | 89 | 1012.3 |
| 20260508165838 | 67 | 58 | 3.0 | 9.0 | 0.00 | 0.38 | 0.38 | 89 | 1012.3 |
| 20260508165321 | 67 | 61 | 4.0 | 8.0 | 0.00 | 0.38 | 0.38 | 89 | 1012.4 |
| 20260508164826 | 66 | 40 | 3.0 | 6.0 | 0.00 | 0.38 | 0.38 | 89 | 1012.4 |
| 20260508164358 | 66 | 47 | 3.0 | 8.0 | 0.00 | 0.38 | 0.38 | 89 | 1012.5 |
| 20260508163842 | 66 | 67 | 3.0 | 8.0 | 0.00 | 0.38 | 0.38 | 89 | 1012.6 |
| 20260508163327 | 66 | 49 | 3.0 | 5.0 | 0.00 | 0.38 | 0.38 | 88 | 1012.8 |
| 20260508162831 | 66 | 65 | 2.0 | 6.0 | 0.00 | 0.38 | 0.38 | 88 | 1012.8 |
| 20260508162329 | 66 | 88 | 3.0 | 5.0 | 0.00 | 0.38 | 0.38 | 88 | 1012.9 |
| 20260508161836 | 65 | 58 | 4.0 | 5.0 | 0.00 | 0.38 | 0.38 | 88 | 1013.0 |
| 20260508161323 | 65 | 40 | 1.0 | 4.0 | 0.00 | 0.38 | 0.38 | 88 | 1013.0 |
| 20260508160850 | 65 | 67 | 3.0 | 6.0 | 0.00 | 0.38 | 0.38 | 88 | 1012.9 |